AZG209 UBBB-UAAA

Flight info

Callsign AZG209
Flight time N/A
Altitude 33000
Route NAMAS N35 RODAR A909 TUNEK B143 KRS A480 OTBOR/K0900F330 N147 GENDI Z621 ARBOL M610 TOMGO Z370 EKLAT EKLAT1Z
Aircraft B77L/H-SDE1E2E3FGHIJ2J3J4J5M1RWXY/LB1D1

Departure

Time 2025-09-10 13:50
Airport Heydar Aliyev International Airport (UBBB)

Arrival

Time N/A
Airport Almaty International Airport (UAAA)
Time Latitude Longitude Altitude Speed Heading
2025-09-10 13:37 40.45975 50.05960 19 ft 0 kts 279°
2025-09-10 13:38 40.46063 50.05943 19 ft 9 kts 18°
2025-09-10 13:39 40.46141 50.06069 20 ft 9 kts 61°
2025-09-10 13:39 40.46199 50.06100 19 ft 9 kts
2025-09-10 13:39 40.46374 50.06097 19 ft 19 kts 359°
2025-09-10 13:40 40.46787 50.06092 19 ft 18 kts 359°
2025-09-10 13:41 40.46943 50.06026 19 ft 11 kts 284°
2025-09-10 13:41 40.46931 50.05505 19 ft 22 kts 268°
2025-09-10 13:42 40.46926 50.05304 19 ft 22 kts 267°
2025-09-10 13:42 40.46916 50.04903 19 ft 22 kts 268°
2025-09-10 13:43 40.46907 50.04501 19 ft 22 kts 268°
2025-09-10 13:43 40.46886 50.04303 19 ft 21 kts 256°
2025-09-10 13:43 40.46831 50.04057 18 ft 11 kts 229°
2025-09-10 13:44 40.46271 50.04291 19 ft 28 kts 160°
2025-09-10 13:45 40.46089 50.04379 19 ft 28 kts 160°
2025-09-10 13:45 40.45825 50.04510 19 ft 10 kts 159°
2025-09-10 13:46 40.45696 50.04520 19 ft 10 kts 227°
2025-09-10 13:46 40.45643 50.04349 18 ft 10 kts 254°
2025-09-10 13:47 40.45626 50.04164 16 ft 11 kts 286°
2025-09-10 13:47 40.45682 50.04118 17 ft 6 kts 345°
2025-09-10 13:47 40.45695 50.04113 17 ft 8 kts 345°
2025-09-10 13:48 40.47369 50.03583 18 ft 156 kts 346°
2025-09-10 13:49 40.49681 50.02840 633 ft 171 kts 344°
2025-09-10 13:49 40.52007 50.02095 1471 ft 176 kts 346°
2025-09-10 13:50 40.54591 50.01282 1886 ft 210 kts 346°
2025-09-10 13:50 40.57712 50.00271 2429 ft 245 kts 346°
2025-09-10 13:51 40.60755 49.98423 3340 ft 261 kts 313°
2025-09-10 13:51 40.61700 49.96400 4047 ft 260 kts 296°
2025-09-10 13:51 40.62061 49.91531 4966 ft 279 kts 267°
2025-09-10 13:52 40.61882 49.83819 6719 ft 288 kts 268°
2025-09-10 13:53 40.61841 49.78557 7913 ft 289 kts 267°
2025-09-10 13:53 40.61806 49.73260 8567 ft 288 kts 268°
2025-09-10 13:54 40.61750 49.67977 9817 ft 290 kts 267°
2025-09-10 13:54 40.61673 49.62506 10420 ft 316 kts 267°
2025-09-10 13:54 40.61630 49.59521 10579 ft 336 kts 267°
2025-09-10 13:55 40.61540 49.53058 11079 ft 368 kts 267°
2025-09-10 13:55 40.61448 49.46249 12434 ft 373 kts 267°
2025-09-10 13:56 40.61301 49.35906 14540 ft 381 kts 266°